Time,TemperatureF,DewpointF,PressureIn,WindDirection,WindDirectionDegrees,WindSpeedMPH,WindSpeedGustMPH,Humidity,HourlyPrecipIn,Conditions,Clouds,dailyrainin,SoftwareType,DateUTC
2013-03-03 00:10:00,49.9,22.0,30.06,SW,223,5.0,-999.0,34,-99.99,,,0.00,weatherlink.com 1.10,2013-03-03 07:10:00,
2013-03-03 00:25:00,47.1,22.0,30.05,West,279,4.0,-999.0,38,-99.99,,,0.00,weatherlink.com 1.10,2013-03-03 07:25:00,
2013-03-03 00:39:00,46.4,21.0,30.04,West,265,6.0,-999.0,36,-99.99,,,0.00,weatherlink.com 1.10,2013-03-03 07:39:00,
2013-03-03 00:54:00,44.9,22.0,30.04,WSW,243,5.0,-999.0,41,-99.99,,,0.00,weatherlink.com 1.10,2013-03-03 07:54:00,
2013-03-03 01:09:00,45.1,22.0,30.02,West,260,5.0,-999.0,40,-99.99,,,0.00,weatherlink.com 1.10,2013-03-03 08:09:00,
2013-03-03 01:24:00,45.8,22.0,30.02,WSW,258,4.0,-999.0,39,-99.99,,,0.00,weatherlink.com 1.10,2013-03-03 08:24:00,
2013-03-03 01:39:00,45.9,22.0,30.01,WSW,253,5.0,-999.0,39,-99.99,,,0.00,weatherlink.com 1.10,2013-03-03 08:39:00,
2013-03-03 01:54:00,48.0,18.0,30.00,West,261,11.0,-999.0,30,-99.99,,,0.00,weatherlink.com 1.10,2013-03-03 08:54:00,
2013-03-03 02:09:00,49.6,19.0,29.99,WSW,240,8.0,-999.0,30,-99.99,,,0.00,weatherlink.com 1.10,2013-03-03 09:09:00,
2013-03-03 02:24:00,51.4,18.0,29.98,WNW,298,4.0,-999.0,27,-99.99,,,0.00,weatherlink.com 1.10,2013-03-03 09:24:00,
2013-03-03 02:39:00,52.7,18.0,29.97,West,281,14.0,-999.0,26,-99.99,,,0.00,weatherlink.com 1.10,2013-03-03 09:39:00,
2013-03-03 02:54:00,53.2,18.0,29.96,West,281,15.0,-999.0,25,-99.99,,,0.00,weatherlink.com 1.10,2013-03-03 09:54:00,
2013-03-03 03:09:00,52.8,19.0,29.95,WSW,242,14.0,-999.0,26,-99.99,,,0.00,weatherlink.com 1.10,2013-03-03 10:09:00,
2013-03-03 03:24:00,52.4,18.0,29.95,WSW,238,19.0,-999.0,26,-99.99,,,0.00,weatherlink.com 1.10,2013-03-03 10:24:00,
2013-03-03 03:39:00,52.8,18.0,29.95,West,268,23.0,-999.0,25,-99.99,,,0.00,weatherlink.com 1.10,2013-03-03 10:39:00,
2013-03-03 03:54:00,53.2,18.0,29.95,West,271,6.0,-999.0,25,-99.99,,,0.00,weatherlink.com 1.10,2013-03-03 10:54:00,
2013-03-03 04:09:00,52.8,18.0,29.95,WSW,248,12.0,-999.0,25,-99.99,,,0.00,weatherlink.com 1.10,2013-03-03 11:09:00,
2013-03-03 04:24:00,52.8,18.0,29.93,West,275,7.0,-999.0,25,-99.99,,,0.00,weatherlink.com 1.10,2013-03-03 11:24:00,
2013-03-03 04:39:00,52.6,18.0,29.92,NW,307,13.0,-999.0,25,-99.99,,,0.00,weatherlink.com 1.10,2013-03-03 11:39:00,
2013-03-03 04:54:00,52.2,18.0,29.92,NW,309,17.0,-999.0,26,-99.99,,,0.00,weatherlink.com 1.10,2013-03-03 11:54:00,
2013-03-03 05:10:00,52.0,19.0,29.92,NW,307,14.0,-999.0,27,-99.99,,,0.00,weatherlink.com 1.10,2013-03-03 12:10:00,
2013-03-03 05:25:00,52.4,17.0,29.92,West,273,14.0,-999.0,25,-99.99,,,0.00,weatherlink.com 1.10,2013-03-03 12:25:00,
2013-03-03 05:39:00,52.6,18.0,29.91,NW,318,16.0,-999.0,25,-99.99,,,0.00,weatherlink.com 1.10,2013-03-03 12:39:00,
2013-03-03 05:54:00,50.8,19.0,29.91,West,275,9.0,-999.0,28,-99.99,,,0.00,weatherlink.com 1.10,2013-03-03 12:54:00,
2013-03-03 06:09:00,51.0,18.0,29.91,NW,312,10.0,-999.0,27,-99.99,,,0.00,weatherlink.com 1.10,2013-03-03 13:09:00,
2013-03-03 06:24:00,50.6,18.0,29.91,NW,304,12.0,-999.0,28,-99.99,,,0.00,weatherlink.com 1.10,2013-03-03 13:24:00,
2013-03-03 06:39:00,51.2,18.0,29.91,WNW,285,12.0,-999.0,27,-99.99,,,0.00,weatherlink.com 1.10,2013-03-03 13:39:00,
2013-03-03 06:54:00,49.6,19.0,29.91,WNW,283,2.0,-999.0,30,-99.99,,,0.00,weatherlink.com 1.10,2013-03-03 13:54:00,
2013-03-03 07:09:00,50.7,19.0,29.91,SSW,213,6.0,-999.0,29,-99.99,,,0.00,weatherlink.com 1.10,2013-03-03 14:09:00,
2013-03-03 07:24:00,50.1,21.0,29.90,South,180,10.0,-999.0,32,-99.99,,,0.00,weatherlink.com 1.10,2013-03-03 14:24:00,
2013-03-03 07:39:00,51.5,17.0,29.90,South,184,11.0,-999.0,26,-99.99,,,0.00,weatherlink.com 1.10,2013-03-03 14:39:00,
2013-03-03 07:54:00,51.3,18.0,29.90,SSE,163,3.0,-999.0,27,-99.99,,,0.00,weatherlink.com 1.10,2013-03-03 14:54:00,
2013-03-03 08:10:00,52.4,17.0,29.89,WNW,284,4.0,-999.0,25,-99.99,,,0.00,weatherlink.com 1.10,2013-03-03 15:10:00,
2013-03-03 08:25:00,52.5,19.0,29.89,East,96,2.0,-999.0,27,-99.99,,,0.00,weatherlink.com 1.10,2013-03-03 15:25:00,
2013-03-03 08:39:00,51.4,20.0,29.89,NNE,25,4.0,-999.0,29,-99.99,,,0.00,weatherlink.com 1.10,2013-03-03 15:39:00,
2013-03-03 08:54:00,50.7,20.0,29.89,ENE,60,2.0,-999.0,30,-99.99,,,0.00,weatherlink.com 1.10,2013-03-03 15:54:00,
2013-03-03 09:09:00,51.9,23.0,29.88,SSW,208,14.0,-999.0,33,-99.99,,,0.00,weatherlink.com 1.10,2013-03-03 16:09:00,
2013-03-03 09:24:00,54.1,20.0,29.88,West,273,5.0,-999.0,26,-99.99,,,0.00,weatherlink.com 1.10,2013-03-03 16:24:00,
2013-03-03 09:39:00,54.4,23.0,29.88,ESE,117,6.0,-999.0,29,-99.99,,,0.00,weatherlink.com 1.10,2013-03-03 16:39:00,
2013-03-03 09:54:00,54.6,19.0,29.87,SW,217,6.0,-999.0,25,-99.99,,,0.00,weatherlink.com 1.10,2013-03-03 16:54:00,
2013-03-03 10:09:00,55.8,20.0,29.86,West,275,5.0,-999.0,25,-99.99,,,0.00,weatherlink.com 1.10,2013-03-03 17:09:00,
2013-03-03 10:24:00,56.5,19.0,29.86,SW,225,17.0,-999.0,23,-99.99,,,0.00,weatherlink.com 1.10,2013-03-03 17:24:00,
2013-03-03 10:39:00,56.5,19.0,29.85,WSW,249,24.0,-999.0,23,-99.99,,,0.00,weatherlink.com 1.10,2013-03-03 17:39:00,
2013-03-03 10:54:00,56.9,17.0,29.85,WSW,238,30.0,-999.0,21,-99.99,,,0.00,weatherlink.com 1.10,2013-03-03 17:54:00,
2013-03-03 11:10:00,56.4,17.0,29.84,SW,232,30.0,-999.0,21,-99.99,,,0.00,weatherlink.com 1.10,2013-03-03 18:10:00,
2013-03-03 11:25:00,55.5,18.0,29.83,WSW,252,20.0,-999.0,23,-99.99,,,0.00,weatherlink.com 1.10,2013-03-03 18:25:00,
2013-03-03 11:40:00,55.1,19.0,29.83,WNW,284,17.0,-999.0,24,-99.99,,,0.00,weatherlink.com 1.10,2013-03-03 18:40:00,
2013-03-03 11:55:00,55.9,21.0,29.82,SSW,202,11.0,-999.0,26,-99.99,,,0.00,weatherlink.com 1.10,2013-03-03 18:55:00,
2013-03-03 12:09:00,56.8,19.0,29.80,ESE,113,9.0,-999.0,23,-99.99,,,0.00,weatherlink.com 1.10,2013-03-03 19:09:00,
2013-03-03 12:24:00,57.1,18.0,29.79,South,189,7.0,-999.0,22,-99.99,,,0.00,weatherlink.com 1.10,2013-03-03 19:24:00,
2013-03-03 12:39:00,57.4,18.0,29.78,SSW,207,9.0,-999.0,21,-99.99,,,0.00,weatherlink.com 1.10,2013-03-03 19:39:00,
2013-03-03 12:54:00,58.1,19.0,29.78,NNW,327,20.0,-999.0,22,-99.99,,,0.00,weatherlink.com 1.10,2013-03-03 19:54:00,
2013-03-03 13:09:00,57.7,19.0,29.77,WNW,296,30.0,-999.0,22,-99.99,,,0.00,weatherlink.com 1.10,2013-03-03 20:09:00,
2013-03-03 13:24:00,57.7,19.0,29.76,West,267,16.0,-999.0,22,-99.99,,,0.00,weatherlink.com 1.10,2013-03-03 20:24:00,
2013-03-03 13:39:00,58.4,21.0,29.76,SSW,205,13.0,-999.0,23,-99.99,,,0.00,weatherlink.com 1.10,2013-03-03 20:39:00,
2013-03-03 13:54:00,58.6,17.0,29.76,WSW,245,9.0,-999.0,20,-99.99,,,0.00,weatherlink.com 1.10,2013-03-03 20:54:00,
2013-03-03 14:09:00,58.4,17.0,29.76,SSW,203,14.0,-999.0,20,-99.99,,,0.00,weatherlink.com 1.10,2013-03-03 21:09:00,
2013-03-03 14:24:00,58.1,20.0,29.76,WNW,296,6.0,-999.0,23,-99.99,,,0.00,weatherlink.com 1.10,2013-03-03 21:24:00,
2013-03-03 14:40:00,58.5,22.0,29.75,WNW,286,14.0,-999.0,24,-99.99,,,0.00,weatherlink.com 1.10,2013-03-03 21:40:00,
2013-03-03 14:55:00,59.2,19.0,29.76,West,265,11.0,-999.0,21,-99.99,,,0.00,weatherlink.com 1.10,2013-03-03 21:55:00,
2013-03-03 15:10:00,58.7,21.0,29.76,SW,229,20.0,-999.0,23,-99.99,,,0.00,weatherlink.com 1.10,2013-03-03 22:10:00,
2013-03-03 15:25:00,58.4,22.0,29.75,WSW,237,4.0,-999.0,24,-99.99,,,0.00,weatherlink.com 1.10,2013-03-03 22:25:00,
2013-03-03 15:40:00,58.6,25.0,29.76,South,182,1.0,-999.0,27,-99.99,,,0.00,weatherlink.com 1.10,2013-03-03 22:40:00,
2013-03-03 15:55:00,58.4,22.0,29.76,SE,128,7.0,-999.0,24,-99.99,,,0.00,weatherlink.com 1.10,2013-03-03 22:55:00,
2013-03-03 16:09:00,56.7,21.0,29.76,South,182,15.0,-999.0,25,-99.99,,,0.00,weatherlink.com 1.10,2013-03-03 23:09:00,
2013-03-03 16:24:00,56.2,22.0,29.75,ESE,123,3.0,-999.0,26,-99.99,,,0.00,weatherlink.com 1.10,2013-03-03 23:24:00,
2013-03-03 16:39:00,56.0,21.0,29.74,West,273,1.0,-999.0,26,-99.99,,,0.00,weatherlink.com 1.10,2013-03-03 23:39:00,
2013-03-03 16:54:00,55.0,22.0,29.74,SW,218,8.0,-999.0,28,-99.99,,,0.00,weatherlink.com 1.10,2013-03-03 23:54:00,
2013-03-03 17:09:00,54.2,23.0,29.74,SE,130,14.0,-999.0,30,-99.99,,,0.00,weatherlink.com 1.10,2013-03-04 00:09:00,
2013-03-03 17:24:00,52.9,23.0,29.75,SW,227,5.0,-999.0,31,-99.99,,,0.00,weatherlink.com 1.10,2013-03-04 00:24:00,
2013-03-03 17:39:00,51.9,23.0,29.76,SSW,205,26.0,-999.0,33,-99.99,,,0.00,weatherlink.com 1.10,2013-03-04 00:39:00,
2013-03-03 17:54:00,51.5,23.0,29.76,SW,214,20.0,-999.0,33,-99.99,,,0.00,weatherlink.com 1.10,2013-03-04 00:54:00,
2013-03-03 18:09:00,51.5,24.0,29.77,SW,220,17.0,-999.0,34,-99.99,,,0.00,weatherlink.com 1.10,2013-03-04 01:09:00,
2013-03-03 18:24:00,50.5,25.0,29.77,SW,232,21.0,-999.0,37,-99.99,,,0.00,weatherlink.com 1.10,2013-03-04 01:24:00,
2013-03-03 18:39:00,50.6,25.0,29.77,SW,215,29.0,-999.0,37,-99.99,,,0.00,weatherlink.com 1.10,2013-03-04 01:39:00,
2013-03-03 18:54:00,50.3,25.0,29.77,SW,221,11.0,-999.0,37,-99.99,,,0.00,weatherlink.com 1.10,2013-03-04 01:54:00,
2013-03-03 19:10:00,50.4,25.0,29.77,SW,234,22.0,-999.0,37,-99.99,,,0.00,weatherlink.com 1.10,2013-03-04 02:10:00,
2013-03-03 19:25:00,50.5,24.0,29.76,West,275,21.0,-999.0,36,-99.99,,,0.00,weatherlink.com 1.10,2013-03-04 02:25:00,
2013-03-03 19:39:00,50.1,25.0,29.76,West,279,20.0,-999.0,38,-99.99,,,0.00,weatherlink.com 1.10,2013-03-04 02:39:00,
2013-03-03 19:54:00,49.8,26.0,29.75,WSW,250,36.0,-999.0,39,-99.99,,,0.00,weatherlink.com 1.10,2013-03-04 02:54:00,
2013-03-03 20:09:00,49.7,25.0,29.76,West,272,21.0,-999.0,38,-99.99,,,0.00,weatherlink.com 1.10,2013-03-04 03:09:00,
2013-03-03 20:24:00,49.9,24.0,29.77,SSW,211,6.0,-999.0,37,-99.99,,,0.00,weatherlink.com 1.10,2013-03-04 03:24:00,
2013-03-03 20:39:00,49.1,26.0,29.76,WNW,295,6.0,-999.0,40,-99.99,,,0.00,weatherlink.com 1.10,2013-03-04 03:39:00,
2013-03-03 20:54:00,49.0,25.0,29.75,West,275,18.0,-999.0,39,-99.99,,,0.00,weatherlink.com 1.10,2013-03-04 03:54:00,
2013-03-03 21:10:00,49.9,24.0,29.74,West,280,22.0,-999.0,36,-99.99,,,0.00,weatherlink.com 1.10,2013-03-04 04:10:00,
2013-03-03 21:25:00,49.6,25.0,29.74,NW,307,21.0,-999.0,38,-99.99,,,0.00,weatherlink.com 1.10,2013-03-04 04:25:00,
2013-03-03 21:40:00,49.2,26.0,29.72,West,267,33.0,-999.0,40,-99.99,,,0.00,weatherlink.com 1.10,2013-03-04 04:40:00,
2013-03-03 21:55:00,49.1,26.0,29.71,WSW,252,45.0,-999.0,40,-99.99,,,0.00,weatherlink.com 1.10,2013-03-04 04:55:00,
2013-03-03 22:09:00,49.1,25.0,29.73,West,275,35.0,-999.0,39,-99.99,,,0.00,weatherlink.com 1.10,2013-03-04 05:09:00,
2013-03-03 22:24:00,49.8,25.0,29.73,West,266,34.0,-999.0,38,-99.99,,,0.00,weatherlink.com 1.10,2013-03-04 05:24:00,
2013-03-03 22:39:00,49.4,25.0,29.73,WNW,284,29.0,-999.0,38,-99.99,,,0.00,weatherlink.com 1.10,2013-03-04 05:39:00,
2013-03-03 22:54:00,49.7,24.0,29.73,WNW,303,34.0,-999.0,36,-99.99,,,0.00,weatherlink.com 1.10,2013-03-04 05:54:00,
2013-03-03 23:09:00,50.2,23.0,29.73,West,269,32.0,-999.0,34,-99.99,,,0.00,weatherlink.com 1.10,2013-03-04 06:09:00,
2013-03-03 23:24:00,50.3,23.0,29.73,West,271,35.0,-999.0,34,-99.99,,,0.00,weatherlink.com 1.10,2013-03-04 06:24:00,
2013-03-03 23:39:00,49.5,23.0,29.73,West,270,33.0,-999.0,36,-99.99,,,0.00,weatherlink.com 1.10,2013-03-04 06:39:00,
2013-03-03 23:54:00,49.5,23.0,29.73,WSW,256,30.0,-999.0,35,-99.99,,,0.00,weatherlink.com 1.10,2013-03-04 06:54:00,